Location: Gorze? G�rny
(49.8500°N, 19.5000°E)
Time: 05:17:23
(UTC+00:00)

Lacrosse 5 - Pass Details

Date: 13 May 2021
Orbit: 715 x 724 km, 57.0° (Epoch: 15 June)

Event Time Altitude Azimuth Distance (km) Brightness Sun altitude
Exits shadow 22:11:27 18° 105° (ESE) 1,735 3.6 -21.3°
Drops below altitude 10° 22:13:43 10° 80° (E) 2,203 4.4 -21.3°
Sets 22:16:41 0° 63° (ENE) 3,130 5.4 -21.4°
